Orbital Elements at Epoch 2459200.5 (2020-Dec-17.0) TDB
Reference: JPL 14 (heliocentric ecliptic J2000)
Element | Value | Uncertainty (1-sigma) | Units |
e | .3191902564705316 | 5.4152e-08 | |
a | 2.539820499209629 | 2.4813e-08 | au |
q | 1.729134542677794 | 1.4261e-07 | au |
i | 5.815871489368647 | 1.1442e-05 | deg |
node | 70.9985123285102 | 7.2064e-05 | deg |
peri | 259.4255439644087 | 8.4903e-05 | deg |
M | 335.5042581246196 | 5.7399e-05 | deg |
tp | 2459301.098396726590 (2021-Mar-27.59839673) | 0.0002365 | TDB |
period | 1478.437477248686 4.05 | 2.1666e-05 5.932e-08 | d yr |
n | .2435003208048715 | 3.5683e-09 | deg/d |
Q | 3.350506455741464 | 3.2733e-08 | au |
|
| | Orbit Determination Parameters
Additional Information
|